TimeEDT,TemperatureF,Dew PointF,Humidity,Sea Level PressureIn,VisibilityMPH,Wind Direction,Wind SpeedMPH,Gust SpeedMPH,PrecipitationIn,Events,Conditions,WindDirDegrees,DateUTC
12:56 AM,62.1,61.0,96,30.08,7.0,Calm,Calm,-,N/A,,Clear,0,2013-08-19 04:56:00
1:56 AM,60.1,59.0,96,30.06,6.0,Calm,Calm,-,N/A,,Clear,0,2013-08-19 05:56:00
2:56 AM,59.0,57.0,93,30.06,7.0,Calm,Calm,-,N/A,,Clear,0,2013-08-19 06:56:00
3:56 AM,60.1,57.9,93,30.06,10.0,West,3.5,-,0.01,,Clear,260,2013-08-19 07:56:00
4:56 AM,59.0,57.0,93,30.06,10.0,SSW,3.5,-,N/A,,Clear,210,2013-08-19 08:56:00
5:56 AM,59.0,57.0,93,30.05,10.0,WSW,4.6,-,N/A,,Clear,240,2013-08-19 09:56:00
6:56 AM,62.1,59.0,90,30.05,10.0,WSW,5.8,-,N/A,,Clear,240,2013-08-19 10:56:00
7:56 AM,66.0,60.1,81,30.04,10.0,WSW,6.9,-,N/A,,Clear,250,2013-08-19 11:56:00
8:56 AM,70.0,62.1,76,30.03,10.0,West,4.6,-,N/A,,Clear,260,2013-08-19 12:56:00
9:56 AM,72.0,62.1,71,30.02,10.0,WSW,5.8,-,N/A,,Clear,250,2013-08-19 13:56:00
10:56 AM,75.9,61.0,60,30.01,10.0,West,4.6,-,N/A,,Clear,260,2013-08-19 14:56:00
11:56 AM,77.0,61.0,58,30.01,10.0,Variable,4.6,-,N/A,,Clear,0,2013-08-19 15:56:00
12:56 PM,80.1,60.1,50,29.99,10.0,SW,8.1,-,N/A,,Clear,230,2013-08-19 16:56:00
1:56 PM,80.1,59.0,48,29.98,10.0,West,13.8,-,N/A,,Partly Cloudy,270,2013-08-19 17:56:00
2:56 PM,78.1,63.0,60,29.97,10.0,SW,11.5,-,N/A,,Clear,230,2013-08-19 18:56:00
3:56 PM,77.0,64.9,66,29.96,10.0,SW,11.5,-,N/A,,Clear,220,2013-08-19 19:56:00
4:56 PM,75.9,64.0,67,29.96,10.0,SW,11.5,-,N/A,,Clear,220,2013-08-19 20:56:00
5:56 PM,75.0,64.9,71,29.96,10.0,SW,6.9,-,N/A,,Clear,220,2013-08-19 21:56:00
6:56 PM,73.9,66.0,76,29.98,10.0,WSW,9.2,-,N/A,,Clear,240,2013-08-19 22:56:00
7:56 PM,73.0,64.0,73,29.99,10.0,WSW,8.1,-,N/A,,Clear,250,2013-08-19 23:56:00
8:56 PM,72.0,64.0,76,29.99,10.0,WSW,5.8,-,N/A,,Clear,250,2013-08-20 00:56:00
9:56 PM,71.1,64.9,81,29.99,10.0,WSW,5.8,-,N/A,,Clear,250,2013-08-20 01:56:00
10:56 PM,71.1,64.0,78,29.98,10.0,West,6.9,-,N/A,,Clear,270,2013-08-20 02:56:00
11:56 PM,72.0,63.0,73,29.99,10.0,West,4.6,-,N/A,,Clear,260,2013-08-20 03:56:00